Location: Menlo Park
(37.4530°N, 122.1817°W)
Time: 22:10:27
(UTC-07:00)

Tiangong 2 - Visible Passes

Search period start: 21 July 2018 00:00
Search period end: 31 July 2018 00:00
Orbit: 386 x 394 km, 42.8° (Epoch: 21 July)

Date Brightness Start Highest point End Pass type
(mag) Time Alt. Az. Time Alt. Az. Time Alt. Az.
21 Jul 1.2 22:22:26 10° WNW 22:25:22 69° WSW 22:25:22 69° WSW visible
22 Jul 1.3 21:24:43 10° WNW 21:27:54 66° NNE 21:30:06 18° E visible
22 Jul 4.0 23:02:03 10° W 23:02:25 12° W 23:02:25 12° W visible
23 Jul 1.8 22:03:59 10° W 22:06:58 38° SSW 22:07:11 37° SSW visible
24 Jul 1.2 21:06:08 10° WNW 21:09:18 69° SSW 21:11:59 14° SE visible
25 Jul 3.0 21:45:50 10° W 21:48:12 19° SW 21:49:10 17° SSW visible
26 Jul 2.3 20:47:40 10° W 20:50:37 34° SSW 20:53:31 10° SE visible
